Search for airport 
image banner adimage banner adimage banner ad
image banner ad

SBPA - Salgado Filho

Located in Porto Alegre, Brazil

ICAO - SBPA, IATA - POA

Data provided by Airmate  

General information

Coordinates: S29°59'38" W51°10'16"
Elevation is 13 feet MSL.
Magnetic variation is -17° East
View others Airports in Rio Grande do Sul

Operational data

Special qualification required
Current time UTC:
Current local time:
Weather
METAR: SBPA 180800Z 10004KT 0800 R11/2000 R29/2000 FG OVC002 15/15 Q1015
TAF: TAF SBPA 180300Z 1806/1906 07004KT 4000 BR BKN010 TN15/1806Z TX21/1817Z BECMG 1808/1810 3000 BR BKN002 BECMG 1813/1815 16010KT 9999 NSW BKN012 BECMG 1816/1818 BKN030 BECMG 1904/1906 5000 BR BKN002 RMK PCQ
View NOTAMs / SUP AIP / TFR affecting this airport [VIEW]
Communications frequencies: [VIEW]

Runways:

RWY identifierQFULength (ft)Width (ft)SurfaceLDA (ft)
1191°7480148ASP
29271°7480148
286496148UNK

Airport contact information

Address: Porto Alegre Brazil

Other aviation service providers

Flight schools

Aerosul

Aerosul

Satellite view of SBPA